Starlink 11247

operational
NORAD ID: 60720 Int'l Des: 2024-152 Owner: SPXS Country: US Constellation: starlink
LEOCIRCULAR

关于 Starlink 11247

正在加载描述...

实时位置

正在加载3D地球...

即将过境

高度历史

Altitude vs Time

uPlot chart will show altitude changes over time

两行轨道根数

1 60720U 24152A 25259.69976813 -.00003336 00000-0 -22712-4 0 9996
2 60720 53.1604 254.2840 0000714 85.5398 274.5702 15.69693436 61502
Epoch: Sep 16, 2025 • Age: 30 hours

当前状态

高度 363.7 km
速度 7.69 km/s
星下点 -13.85°S, 101.65°E
发射日期 Aug 28, 2024
运行时间 1 years
类型 internet

技术详情

分类 Payload
质量 960.00 kg
干质量 910.00 kg
总质量 960.00 kg
长度 0.30 m
直径 4.10 m
跨度 29.00 m
形状 Box + pan
制造商 SPXS
平台类型 Starlink V2MD
阶段状态 In Orbit
所有者/国家 SPXS/US

大型星座

Loading constellations...